星链-4729 (STARLINK-4729 )

导读 | 豆包AI

STARLINK-4729是美国SpaceX公司星链(Starlink)星座的一员,于2022年9月11日发射。星链项目旨在通过近地轨道卫星星座,为全球偏远、基础设施匮乏地区提供低延迟高速宽带互联网服务。作为组网卫星之一,STARLINK-4729运行在近地轨道,帮助完善全球覆盖网络,支持视频通话、在线游戏等高需求网络活动,是SpaceX大规模卫星互联网部署计划的组成部分。

基本信息
目录编号:
53804
目录名称:
STARLINK-4729
国际标识:
2022-111AH
轨道中心:
EARTH
卫星名称:
星链-4729
卫星全名:
星链-4729 (STARLINK-4729 )
卫星状态:
在轨 (已飞行1281 天)
发射日期:
2022-09-11 UTC
国别 :
美国 (US)
星等 :
--
轨道信息
数据来源 国际轨道数据 AOE轨道数据
星历时间 2026-03-15T00:27:04+0800
15小时前
查看轨道信息
2026-03-09T11:00:00+0800
6天前
查看轨道信息
半长轴 6917.914km 6917.858km
偏心率 0.0000931 0.0001292
轨道倾角 53.217° 53.217°
近地点辐角 95.176° 99.827°
升交点赤经 236.479° 261.438°
平近点角 264.934° 280.419°
近地点 539.132km 538.827km
远地点 540.422km 540.615km
周期 95.438分钟 95.437分钟
每日圈数 15.088291 15.088474
详细信息
固有亮度:
5
最大亮度:
2.5
卫星平台:
Starlink v1.5
覆盖范围:
全球
运营商:
太空探索技术公司
运营商所在国:
美国
制造商(研发单位):
太空探索技术公司
制造商所在国:
美国
使用方式:
暂无
卫星简介
星链(Starlink)计划是由太空探索技术公司(SpaceX)提出的一个巨型低轨卫星互联网星座项目,计划在2019年至2024年间在太空搭建由约1.2万颗卫星组成的“星链”网络,其中1584颗将部署在地球上空550千米处的近地轨道,并从2020年开始工作。该卫星仍在工作。
2D轨道图
3D轨道图
轨道高度分析图
轨道倾角分析图
轨道综合分析图
查看轨道综合分析图